Regional Weather Roundup
Issued by NWS

Home | Current Version | Previous Version | Text Only | Print | Product List | Glossary Off
Versions: 1 2 3 4 5 6 7 8 9 10 11 12 13 14 15 16 17 18 19 20 21 22 23 24 25 26 27 28 29 30 31 32 33 34 35 36 37 38 39 40 41 42 43 44 45 46 47 48 49 50

000
ASUS43 KMKX 042020
RWRWI

WISCONSIN REGIONAL WEATHER ROUNDUP
NATIONAL WEATHER SERVICE MILWAUKEE/SULLIVAN WI
200 PM CST WED MAR 04 2015

NOTE: "FAIR" INDICATES FEW OR NO CLOUDS BELOW 12,000 FEET WITH NO
SIGNIFICANT WEATHER AND/OR OBSTRUCTIONS TO VISIBILITY.

WIZ001-002-006>008-014>016-023>028-042100-
NORTHWEST WISCONSIN

CITY           SKY/WX    TMP DP  RH WIND       PRES   REMARKS
SUPERIOR ARPT  CLOUDY     4 -12  47 NW18G30   30.20S WCI -15
ASHLAND        CLOUDY     7 -11  43 W16G25    30.15  WCI -11
HAYWARD        CLOUDY     4 -12  48 W9G18     30.12  WCI -10
SIREN          PTSUNNY    7 -11  44 W17G25    30.18S WCI -12
CUMBERLAND     SUNNY      7  -9  47 NW14G26   30.13S HAZE    WCI -10
RICE LAKE      SUNNY      9 -11  40 W12G18    30.16F WCI  -6
CHETEK         MOSUNNY    9 -11  40 MISG      30.15F
LADYSMITH      MOSUNNY    9  -8  46 W15G24    30.12F WCI  -8
EAU CLAIRE     MOSUNNY   10  -7  46 W16       30.17  WCI  -7
MENOMONIE      PTSUNNY   12  -6  44 W16G24    30.18F WCI  -5
NEW RICHMOND   SUNNY     10  -9  43 W18G25    30.18F WCI  -8
OSCEOLA        SUNNY     10  -9  42 W17G25    30.23F WCI  -7
$$

WIZ003>005-009-010-017-018-042100-
NORTH CENTRAL WISCONSIN

CITY           SKY/WX    TMP DP  RH WIND       PRES   REMARKS
MANITOWISH WTR CLOUDY     2  -9  60 NW14G21   30.01S HAZE    WCI -16
ARBOR VITAE    MOSUNNY    4  -8  56 NW10G18   30.01S WCI -11
WOODRUFF       MOSUNNY    4  -8  56 NW10G18   30.01S WCI -11
RHINELANDER    PTSUNNY    6 -11  45 W16G28    30.00  WCI -12
EAGLE RIVER    PTSUNNY    4 -13  45 NW16G22   29.99S WCI -15
LAND O LAKES   CLOUDY     5 -13  44 W12G21    29.99R WCI -11
PHILLIPS       PTSUNNY    4 -11  48 NW10G22   30.05S WCI -11
TOMAHAWK       PTSUNNY    8 -12  41 W18G28    30.03F WCI -11
MEDFORD        SUNNY      7 -11  44 W18G31    30.05F HAZE    WCI -12
MERRILL        PTSUNNY   10  -8  43 W20G28    30.04S WCI  -8
$$

WIZ029-030-035-036-043>047-042100-
CENTRAL WISCONSIN

CITY           SKY/WX    TMP DP  RH WIND       PRES   REMARKS
WAUSAU         PTSUNNY    8  -7  50 W21G30    30.05  WCI -12
MOSINEE        MOSUNNY    9  -8  47 W20G31    30.08F WCI -11
MARSHFIELD     PTSUNNY   10  -9  42 W21G29    30.09  WCI  -9
STEVENS POINT  SUNNY      9 -10  41 W14G23    30.10F WCI  -7
WAUPACA        SUNNY     17  -5  37 W16       30.12F WCI   1
WAUTOMA        SUNNY     16  -5  39 W15       30.13  WCI   1
WISC RAPIDS    MOSUNNY   12  -9  38 W17G30    30.12  WCI  -5
CAMP DOUGLAS   SUNNY     14  -4  44 W21G28    30.15  WCI  -4
$$

WIZ011>013-019>022-031-037>040-048>050-042100-
NORTHEAST WISCONSIN

CITY           SKY/WX    TMP DP  RH WIND       PRES   REMARKS
ANTIGO         CLOUDY     8  -8  49 W18G33    30.00S HAZE    WCI -11
SHAWANO        MOSUNNY   16  -8  34 W18G25    30.08S WCI   0
OCONTO         SUNNY     14  -9  35 W12G22    30.05F WCI   1
STURGEON BAY   SUNNY     14  -8  37 W18G25    30.05F WCI  -3
GREEN BAY      SUNNY     14  -4  44 W20G26    30.08  WCI  -3
MANITOWOC      SUNNY     17  -1  45 W18       30.09  WCI   1
APPLETON       SUNNY     12  -8  40 W22G31    30.09F WCI  -7
CLINTONVILLE   MOSUNNY   14  -6  41 W17G24    30.09S WCI  -3
OSHKOSH        SUNNY     15  -3  44 W15G23    30.10  WCI   0
$$

WIZ032>034-041-042-053>061-042100-
SOUTHWEST WISCONSIN

CITY           SKY/WX    TMP DP  RH WIND       PRES   REMARKS
LA CROSSE      MOSUNNY   17  -1  45 NW13      30.20F WCI   4
SPARTA         MOSUNNY   16  -4  40 W15G21    30.18F WCI   1
VIROQUA        SUNNY     13  -3  48 W13G18    30.15S WCI  -1
BOSCOBEL       SUNNY     17  -4  39 W10G18    30.22  WCI   5
PRAIRIE DU CHI SUNNY     15  -6  38 W14       30.24S WCI   0
PLATTEVILLE    SUNNY     14  -1  50 W13G18    30.19R WCI   0
$$

WIZ056-057-062-063-064-067-068-042100-
SOUTH CENTRAL WISCONSIN

CITY           SKY/WX    TMP DP  RH WIND       PRES   REMARKS
REEDSBURG      SUNNY     15  -2  46 NW14      30.14F WCI   0
BARABOO/DELLS  SUNNY     15  -6  39 NW12G23   30.13F WCI   1
LONE ROCK      SUNNY     17  -7  34 W18       30.19  WCI   1
MINERAL POINT  SUNNY     18  -4  38 W13G18    30.14F WCI   4
MADISON        MOSUNNY   18  -6  34 W12G20    30.15  WCI   5
MIDDLETON      SUNNY     20  -5  33 W14G24    30.15S WCI   6
WATERTOWN      SUNNY     18   0  44 W13G18    30.12F WCI   5
MONROE         SUNNY     19   0  42 W13       30.14S WCI   7
JANESVILLE     SUNNY     19   0  42 NW15      30.15F WCI   5
$$

WIZ051-052-058>065-066-070>072-042100-
SOUTHEAST WISCONSIN

CITY           SKY/WX    TMP DP  RH WIND       PRES   REMARKS
MILWAUKEE      MOSUNNY   19  -2  39 NW18G25   30.14S WCI   4
WAUKESHA       SUNNY     16  -2  45 W20       30.12  WCI  -1
MILWAUKEE/TIMM SUNNY     19  -4  35 NW18      30.13F WCI   4
RACINE         MOSUNNY   19  -4  36 NW14G22   30.15  WCI   6
BURLINGTON     SUNNY     17  -1  44 NW14G21   30.14S WCI   3
KENOSHA        SUNNY     19   2  47 W15G21    30.13  WCI   5
FOND DU LAC    SUNNY     16  -3  43 NW17G25   30.11  WCI   0
SHEBOYGAN      SUNNY     15  -3  44 W15       30.09  WCI   0
WEST BEND      SUNNY     18  -2  41 NW12G23   30.10S WCI   5
JUNEAU         SUNNY     16  -1  46 W10G20    30.12F WCI   4
$$

LSZ147-162-042100-
LAKE SUPERIOR

STATION/POSITION TIME  TEMP    WIND        PRES    WAVE
                       AIR SEA DIR/SP/G            HT/PER
                 (UTC) (F)     (DEG/KT/KT) (MB)    (FT/S)
DEVILS ISLAND    1900    4     280/ 20/ 25 1022.0R
PORT WING        1900    4     260/ 12/ 21 1021.7
SAXON HARBOR     1900    6     270/  9/ 13 1020.7R
$$

LMZ867-665-643>646-042100-
LAKE MICHIGAN

STATION/POSITION TIME  TEMP    WIND        PRES    WAVE
                       AIR SEA DIR/SP/G            HT/PER
                 (UTC) (F)     (DEG/KT/KT) (MB)    (FT/S)
NORTHPORT PIER   1908   13     300/ 10/ 18 1016.9F
SISTER BAY       1928   23     290/ 15/ 17   N/A
KEWAUNEE LAKESHO 1900   13     280/ 16/ 20 1017.6F
SHEBOYGAN LAKESH 1800   12     290/ 21/ 24 1020.8R
PORT WASHINGTON  1940   17     290/ 14/ 20 1020.7F
MILWAUKEE LAKESH 2000   17     300/ 12/ 17   N/A
KENOSHA   LAKESH 1900   17     290/ 16/ 23 1020.3S
$$

TC  - TEMPERATURE IN CELSIUS
VSB - VISIBILITY IN STATUTE MILES
WCI - WIND CHILL INDEX
HX  - HEAT INDEX



USA.gov is the U.S. government's official web portal to all federal, state and local government web resources and services.